When you browse on this site, cookies collect data to enhance your experience and personalize the content and advertising you see.
Visit our Privacy Policy to learn more. By continuing to use the site, you agree to this use of cookies and data.
  • En España
  • Lista de países
  • Para 7 días
  • Temperatura del agua
  • Mapa Satelital
  • El tiempo en el mapa
  • Informadores
  • user-avatar
    Iniciar sesión

    Tiempo cada hora Medulin

    Hoy, 21 Abril, Domingo

    Tiempo Temperatura Precipitaciones Viento Presión Humedad
    00:00 +14°C° 0 mm 3 mps 764 mmHg 51%
    01:00 +13°C° 0 mm 4 mps 764 mmHg 49%
    02:00 +13°C° 0 mm 3 mps 764 mmHg 49%
    03:00 +12°C° 0 mm 3 mps 764 mmHg 50%
    04:00 +12°C° 0 mm 3 mps 763 mmHg 50%
    05:00 +13°C° 0 mm 3 mps 763 mmHg 50%
    06:00 +14°C° 0 mm 3 mps 763 mmHg 49%
    07:00 +14°C° 0 mm 3 mps 763 mmHg 49%
    08:00 +17°C° 0 mm 3 mps 763 mmHg 48%
    09:00 +18°C° 0 mm 4 mps 763 mmHg 46%
    10:00 +20°C° 0 mm 4 mps 763 mmHg 44%
    11:00 +20°C° 0 mm 5 mps 762 mmHg 46%
    12:00 +21°C° 0 mm 5 mps 762 mmHg 49%
    13:00 +21°C° 0 mm 5 mps 762 mmHg 51%
    14:00 +20°C° 0 mm 5 mps 762 mmHg 53%
    15:00 +20°C° 0 mm 5 mps 761 mmHg 56%
    16:00 +19°C° 0 mm 5 mps 761 mmHg 59%
    17:00 +18°C° 0 mm 4 mps 761 mmHg 66%
    18:00 +17°C° 0 mm 3 mps 761 mmHg 74%
    19:00 +16°C° 0 mm 3 mps 761 mmHg 81%
    20:00 +14°C° 0 mm 3 mps 761 mmHg 82%
    21:00 +14°C° 0 mm 3 mps 761 mmHg 82%
    22:00 +14°C° 0 mm 3 mps 761 mmHg 83%
    23:00 +13°C° 0 mm 4 mps 761 mmHg 83%

    Mañana, 22 Abril, Lunes

    Tiempo Temperatura Precipitaciones Viento Presión Humedad
    00:00 +13°C° 0 mm 4 mps 761 mmHg 84%
    01:00 +13°C° 0 mm 5 mps 761 mmHg 84%
    02:00 +13°C° 0 mm 5 mps 760 mmHg 85%
    03:00 +13°C° 0 mm 5 mps 760 mmHg 86%
    04:00 +12°C° 0 mm 5 mps 760 mmHg 87%
    05:00 +13°C° 0 mm 6 mps 759 mmHg 83%
    06:00 +14°C° 0 mm 6 mps 759 mmHg 80%
    07:00 +14°C° 0 mm 7 mps 758 mmHg 77%
    08:00 +15°C° 0 mm 7 mps 758 mmHg 72%
    09:00 +16°C° 0 mm 8 mps 757 mmHg 68%
    10:00 +17°C° 0 mm 9 mps 757 mmHg 63%
    11:00 +18°C° 0 mm 9 mps 756 mmHg 63%
    12:00 +18°C° 0 mm 10 mps 756 mmHg 63%
    13:00 +18°C° 0 mm 10 mps 755 mmHg 62%
    14:00 +18°C° 0 mm 10 mps 755 mmHg 62%
    15:00 +18°C° 0 mm 11 mps 754 mmHg 62%
    16:00 +18°C° 0 mm 11 mps 754 mmHg 62%
    17:00 +17°C° 0 mm 11 mps 753 mmHg 65%
    18:00 +16°C° 0 mm 11 mps 753 mmHg 69%
    19:00 +14°C° 0 mm 11 mps 753 mmHg 72%
    20:00 +14°C° 1.9 mm 11 mps 753 mmHg 77%
    21:00 +14°C° 1.9 mm 11 mps 753 mmHg 81%
    22:00 +13°C° 1.9 mm 11 mps 753 mmHg 86%
    23:00 +13°C° 1.6 mm 12 mps 752 mmHg 84%

    Pasado mañana, 23 Abril, Martes

    Tiempo Temperatura Precipitaciones Viento Presión Humedad
    00:00 +13°C° 1.6 mm 13 mps 751 mmHg 82%
    01:00 +14°C° 1.6 mm 13 mps 751 mmHg 80%
    02:00 +14°C° 0.1 mm 14 mps 751 mmHg 80%
    03:00 +14°C° 0.1 mm 14 mps 750 mmHg 81%
    04:00 +14°C° 0.1 mm 14 mps 750 mmHg 81%
    05:00 +14°C° 0 mm 14 mps 750 mmHg 81%
    06:00 +14°C° 0 mm 14 mps 750 mmHg 80%
    07:00 +15°C° 0 mm 14 mps 749 mmHg 80%
    08:00 +15°C° 0.1 mm 13 mps 750 mmHg 80%
    09:00 +17°C° 0.1 mm 13 mps 750 mmHg 79%
    10:00 +17°C° 0.1 mm 13 mps 750 mmHg 79%
    11:00 +18°C° 0.3 mm 13 mps 750 mmHg 77%
    12:00 +18°C° 0.3 mm 12 mps 750 mmHg 76%
    13:00 +19°C° 0.3 mm 12 mps 751 mmHg 75%
    14:00 +19°C° 1 mm 11 mps 751 mmHg 74%
    15:00 +19°C° 1 mm 11 mps 751 mmHg 74%
    16:00 +19°C° 1 mm 10 mps 751 mmHg 73%
    17:00 +18°C° 0.8 mm 10 mps 751 mmHg 74%
    18:00 +18°C° 0.8 mm 9 mps 751 mmHg 74%
    19:00 +17°C° 0.8 mm 9 mps 752 mmHg 75%
    20:00 +17°C° 0.6 mm 8 mps 752 mmHg 77%
    21:00 +17°C° 0.6 mm 7 mps 753 mmHg 79%
    22:00 +16°C° 0.6 mm 7 mps 754 mmHg 81%
    23:00 +16°C° 1 mm 7 mps 754 mmHg 83%

    24 Abril, Miércoles

    Tiempo Temperatura Precipitaciones Viento Presión Humedad
    00:00 +16°C° 1 mm 7 mps 755 mmHg 84%
    01:00 +16°C° 1 mm 8 mps 755 mmHg 86%
    02:00 +16°C° 0.4 mm 8 mps 755 mmHg 88%
    03:00 +16°C° 0.4 mm 8 mps 756 mmHg 90%
    04:00 +16°C° 0.4 mm 8 mps 756 mmHg 91%
    05:00 +16°C° 0 mm 9 mps 756 mmHg 90%
    06:00 +16°C° 0 mm 9 mps 757 mmHg 89%
    07:00 +17°C° 0 mm 9 mps 757 mmHg 88%
    08:00 +17°C° 0 mm 9 mps 758 mmHg 86%
    09:00 +17°C° 0 mm 9 mps 758 mmHg 84%
    10:00 +17°C° 0 mm 9 mps 759 mmHg 82%
    11:00 +18°C° 0 mm 9 mps 759 mmHg 78%
    12:00 +19°C° 0 mm 9 mps 759 mmHg 73%
    13:00 +21°C° 0 mm 8 mps 759 mmHg 69%
    14:00 +21°C° 0 mm 8 mps 759 mmHg 68%
    15:00 +21°C° 0 mm 8 mps 759 mmHg 67%
    16:00 +21°C° 0 mm 7 mps 759 mmHg 66%
    17:00 +20°C° 0 mm 7 mps 759 mmHg 68%
    18:00 +19°C° 0 mm 6 mps 759 mmHg 70%
    19:00 +17°C° 0 mm 5 mps 759 mmHg 72%
    20:00 +17°C° 0 mm 5 mps 759 mmHg 71%
    21:00 +16°C° 0 mm 5 mps 760 mmHg 69%
    22:00 +16°C° 0 mm 5 mps 760 mmHg 67%
    23:00 +16°C° 0 mm 6 mps 760 mmHg 69%

    25 Abril, Jueves

    Tiempo Temperatura Precipitaciones Viento Presión Humedad
    00:00 +16°C° 0 mm 6 mps 760 mmHg 70%
    01:00 +16°C° 0 mm 6 mps 760 mmHg 71%
    02:00 +16°C° 0 mm 6 mps 760 mmHg 73%
    03:00 +16°C° 0 mm 6 mps 760 mmHg 74%
    04:00 +16°C° 0 mm 6 mps 760 mmHg 76%
    05:00 +16°C° 0 mm 7 mps 760 mmHg 75%
    06:00 +17°C° 0 mm 7 mps 761 mmHg 75%
    07:00 +17°C° 0 mm 7 mps 761 mmHg 74%
    08:00 +18°C° 0 mm 7 mps 761 mmHg 70%
    09:00 +21°C° 0 mm 7 mps 761 mmHg 66%
    10:00 +22°C° 0 mm 7 mps 761 mmHg 62%
    11:00 +22°C° 0 mm 7 mps 761 mmHg 60%
    12:00 +23°C° 0 mm 7 mps 760 mmHg 58%
    13:00 +23°C° 0 mm 7 mps 760 mmHg 56%
    14:00 +23°C° 0 mm 7 mps 760 mmHg 56%
    15:00 +23°C° 0 mm 6 mps 759 mmHg 57%
    16:00 +23°C° 0 mm 6 mps 759 mmHg 58%
    17:00 +22°C° 0 mm 6 mps 759 mmHg 60%
    18:00 +21°C° 0 mm 5 mps 759 mmHg 62%
    19:00 +20°C° 0 mm 5 mps 759 mmHg 65%
    20:00 +19°C° 0 mm 5 mps 759 mmHg 66%
    21:00 +19°C° 0 mm 4 mps 759 mmHg 67%
    22:00 +18°C° 0 mm 4 mps 759 mmHg 68%
    23:00 +18°C° 0 mm 4 mps 759 mmHg 69%

    26 Abril, Viernes

    Tiempo Temperatura Precipitaciones Viento Presión Humedad
    00:00 +18°C° 0 mm 4 mps 759 mmHg 69%
    01:00 +17°C° 0 mm 4 mps 759 mmHg 69%
    02:00 +17°C° 0 mm 4 mps 759 mmHg 71%
    03:00 +17°C° 0 mm 4 mps 758 mmHg 72%
    04:00 +16°C° 0 mm 5 mps 758 mmHg 74%
    05:00 +16°C° 0 mm 5 mps 758 mmHg 75%
    06:00 +17°C° 0 mm 6 mps 758 mmHg 75%
    07:00 +17°C° 0 mm 6 mps 758 mmHg 76%
    08:00 +18°C° 0 mm 7 mps 758 mmHg 74%
    09:00 +20°C° 0 mm 7 mps 758 mmHg 71%
    10:00 +21°C° 0 mm 7 mps 758 mmHg 68%
    11:00 +22°C° 0 mm 7 mps 758 mmHg 67%
    12:00 +22°C° 0 mm 7 mps 758 mmHg 67%
    13:00 +23°C° 0 mm 7 mps 758 mmHg 66%
    14:00 +22°C° 0 mm 7 mps 757 mmHg 67%
    15:00 +22°C° 0 mm 7 mps 757 mmHg 69%
    16:00 +22°C° 0 mm 6 mps 756 mmHg 71%
    17:00 +21°C° 0 mm 5 mps 756 mmHg 75%
    18:00 +20°C° 0 mm 4 mps 756 mmHg 78%
    19:00 +18°C° 0 mm 3 mps 756 mmHg 82%
    20:00 +18°C° 0.1 mm 3 mps 757 mmHg 82%
    21:00 +18°C° 0.1 mm 2 mps 757 mmHg 82%
    22:00 +18°C° 0.1 mm 2 mps 757 mmHg 82%
    23:00 +18°C° 0.8 mm 1 mps 757 mmHg 85%
    Mostrar más